Find Starlink 32492

NORAD ID: 62050 Int'l Des: 2024-216 Owner: SPXS Country: US Constellation: starlink operational
LEOCIRCULAR

現在のビュー

3D地球を読み込み中...

About Starlink 32492

Starlink 32492 (NORAD 62050) is a starlink constellation satellite (v2 mini) launched Nov 21, 2024 by SPXS of US. It operates in LEO, CIRCULAR orbit with a mass of 730.00 kg.

Starlink 32492について

説明を読み込み中...

次回通過

Passes for default location (London). Set your location on the main map for personalized predictions.

高度履歴

Loading altitude history...

軌道要素

1 62050U 24216U 26173.29759874 .00017828 00000-0 65565-3 0 9994
2 62050 42.9994 32.5098 0002254 276.9207 83.1389 15.27587724 89798
Epoch: Jun 22, 2026 • Age: 30 hours

現在のステータス

高度 487.0 km
速度 7.63 km/s
衛星直下点 40.70°N, 25.71°E
打ち上げ日 Nov 21, 2024
運用期間 1.5 years
タイプ internet

技術仕様

分類 Payload
質量 730.00 kg
乾燥質量 700.00 kg
総質量 730.00 kg
長さ 0.30 m
直径 4.10 m
スパン 29.00 m
形状 Box + pan
製造者 SPXS
バスタイプ Starlink V2M
フェーズステータス In Orbit
所有者/国 SPXS/US

Most Searched